QPF
0.02 0.02 0.01 0.02 0.02 0.03 0.03 0.01 0.01 0.01 0.01 0.01 0.01 0.01 0.01 0.02 0.03 0.02 0.02 0.02 0.02 0.02 0.02 0.02 0.02 0.01 0.01 0.01 0.01 0.00 0.00 0.00 0.00 0.00 0.01 0.02 0.02 0.02
0.03 0.02 0.02 0.02 0.02 0.02 0.02 0.02 0.01 0.01 0.01 0.00 0.00 0.01 0.01 0.02 0.03 0.02 0.02 0.02 0.02 0.02 0.02 0.02 0.02 0.02 0.01 0.01 0.00 0.00 0.00 0.00 0.00 0.00 0.00 0.00 0.01 0.01
0.04 0.03 0.03 0.03 0.02 0.02 0.02 0.02 0.02 0.02 0.01 0.01 0.01 0.01 0.01 0.02 0.03 0.02 0.02 0.02 0.01 0.02 0.01 0.01 0.01 0.01 0.01 0.00 0.00 0.00 0.00 0.00 0.00 0.00 0.00 0.00 0.00 0.00
0.04 0.03 0.03 0.03 0.02 0.01 0.01 0.01 0.02 0.03 0.02 0.02 0.01 0.01 0.01 0.02 0.02 0.02 0.01 0.01 0.01 0.01 0.01 0.01 0.00 0.00 0.00 0.00 0.00 0.00 0.00 0.00 0.00 0.00 0.00 0.00 0.00 0.00
0.03 0.03 0.03 0.03 0.03 0.02 0.01 0.01 0.02 0.02 0.02 0.02 0.02 0.02 0.02 0.02 0.03 0.02 0.01 0.01 0.01 0.01 0.01 0.01 0.01 0.01 0.01 0.01 0.01 0.01 0.01 0.01 0.01 0.00 0.00 0.00 0.00 0.00
0.04 0.04 0.04 0.03 0.03 0.02 0.02 0.02 0.02 0.03 0.03 0.03 0.03 0.04 0.04 0.03 0.03 0.02 0.02 0.02 0.01 0.02 0.02 0.01 0.01 0.01 0.02 0.01 0.01 0.01 0.01 0.01 0.01 0.01 0.01 0.01 0.01 0.01
0.05 0.04 0.04 0.03 0.03 0.04 0.03 0.03 0.04 0.05 0.05 0.06 0.06 0.05 0.04 0.03 0.03 0.02 0.02 0.02 0.02 0.02 0.02 0.01 0.02 0.02 0.01 0.01 0.01 0.01 0.01 0.01 0.01 0.01 0.01 0.02 0.02 0.01
0.05 0.05 0.05 0.04 0.04 0.04 0.04 0.05 0.07 0.07 0.07 0.07 0.07 0.05 0.03 0.03 0.03 0.02 0.02 0.02 0.01 0.01 0.01 0.01 0.01 0.01 0.01 0.01 0.01 0.01 0.01 0.01 0.01 0.01 0.01 0.01 0.01 0.01
0.07 0.08 0.07 0.06 0.07 0.05 0.05 0.06 0.06 0.06 0.06 0.08 0.07 0.05 0.04 0.03 0.03 0.02 0.02 0.02 0.01 0.01 0.01 0.01 0.00 0.00 0.01 0.01 0.02 0.02 0.02 0.02 0.02 0.01 0.01 0.01 0.01 0.01
0.09 0.09 0.09 0.08 0.09 0.07 0.06 0.05 0.05 0.05 0.06 0.06 0.05 0.03 0.03 0.03 0.03 0.03 0.02 0.02 0.01 0.01 0.01 0.01 0.00 0.00 0.00 0.00 0.01 0.02 0.02 0.04 0.04 0.02 0.01 0.01 0.01 0.01
0.13 0.11 0.08 0.06 0.08 0.08 0.07 0.07 0.07 0.07 0.08 0.07 0.05 0.04 0.03 0.03 0.03 0.03 0.02 0.02 0.01 0.01 0.01 0.01 0.01 0.01 0.00 0.00 0.00 0.00 0.01 0.01 0.02 0.02 0.02 0.02 0.02 0.01
0.13 0.11 0.10 0.08 0.08 0.10 0.08 0.07 0.06 0.05 0.05 0.05 0.04 0.03 0.03 0.02 0.03 0.03 0.03 0.03 0.02 0.02 0.01 0.01 0.01 0.01 0.01 0.01 0.00 0.00 0.00 0.00 0.01 0.00 0.00 0.01 0.01 0.01
0.11 0.09 0.08 0.07 0.07 0.08 0.08 0.06 0.05 0.05 0.04 0.04 0.04 0.04 0.04 0.03 0.04 0.04 0.05 0.05 0.05 0.04 0.03 0.02 0.02 0.02 0.01 0.01 0.00 0.00 0.00 0.00 0.00 0.01 0.01 0.01 0.01 0.01
0.13 0.09 0.07 0.07 0.06 0.06 0.05 0.06 0.07 0.08 0.06 0.05 0.04 0.04 0.04 0.04 0.04 0.04 0.04 0.04 0.05 0.05 0.06 0.05 0.04 0.04 0.03 0.02 0.01 0.01 0.01 0.01 0.01 0.01 0.01 0.01 0.01 0.01
0.11 0.11 0.10 0.08 0.06 0.05 0.06 0.06 0.06 0.05 0.05 0.04 0.04 0.04 0.04 0.04 0.04 0.04 0.04 0.04 0.04 0.04 0.04 0.04 0.04 0.03 0.02 0.02 0.02 0.01 0.01 0.01 0.01 0.01 0.01 0.01 0.00 0.01
0.12 0.12 0.11 0.11 0.09 0.07 0.06 0.05 0.05 0.04 0.04 0.04 0.04 0.04 0.04 0.04 0.04 0.04 0.04 0.04 0.04 0.04 0.04 0.03 0.03 0.03 0.03 0.02 0.02 0.02 0.01 0.01 0.01 0.01 0.01 0.01 0.01 0.01
0.10 0.09 0.08 0.07 0.07 0.05 0.04 0.03 0.03 0.03 0.04 0.03 0.03 0.03 0.03 0.03 0.04 0.03 0.03 0.04 0.04 0.04 0.04 0.04 0.04 0.03 0.03 0.03 0.03 0.03 0.02 0.01 0.02 0.02 0.01 0.01 0.02 0.02
0.06 0.07 0.07 0.05 0.04 0.02 0.02 0.02 0.02 0.02 0.02 0.02 0.02 0.02 0.02 0.02 0.03 0.03 0.03 0.03 0.03 0.04 0.04 0.04 0.04 0.04 0.04 0.04 0.03 0.03 0.03 0.03 0.03 0.03 0.03 0.03 0.03 0.03
0.04 0.04 0.03 0.02 0.02 0.02 0.02 0.01 0.01 0.01 0.01 0.01 0.01 0.01 0.01 0.02 0.02 0.02 0.03 0.03 0.03 0.03 0.03 0.04 0.05 0.06 0.06 0.05 0.03 0.03 0.03 0.03 0.03 0.02 0.02 0.02 0.02 0.02
0.04 0.03 0.02 0.01 0.02 0.01 0.01 0.01 0.01 0.01 0.00 0.00 0.00 0.00 0.01 0.01 0.01 0.01 0.02 0.02 0.02 0.03 0.03 0.03 0.04 0.05 0.05 0.04 0.04 0.03 0.03 0.04 0.03 0.02 0.02 0.02 0.02 0.03
0.03 0.02 0.02 0.01 0.01 0.01 0.01 0.01 0.01 0.01 0.01 0.01 0.01 0.01 0.01 0.01 0.01 0.01 0.01 0.01 0.02 0.02 0.02 0.02 0.02 0.03 0.04 0.05 0.05 0.04 0.03 0.04 0.04 0.04 0.04 0.04 0.03 0.03
0.01 0.01 0.01 0.01 0.01 0.01 0.01 0.01 0.02 0.02 0.02 0.02 0.02 0.02 0.02 0.01 0.01 0.01 0.02 0.02 0.02 0.01 0.01 0.01 0.02 0.02 0.03 0.04 0.05 0.03 0.03 0.04 0.05 0.06 0.05 0.04 0.03 0.03
0.01 0.01 0.00 0.01 0.01 0.01 0.01 0.01 0.01 0.01 0.01 0.02 0.02 0.02 0.02 0.02 0.02 0.02 0.02 0.02 0.02 0.02 0.02 0.02 0.02 0.02 0.02 0.03 0.03 0.04 0.04 0.04 0.04 0.04 0.03 0.03 0.03 0.02
MSLP
1017.24 1017.56 1017.87 1018.14 1018.34 1018.46 1018.48 1018.40 1018.22 1017.96 1017.64 1017.29 1016.95 1016.63 1016.36 1016.15 1016.00 1015.93 1015.93 1015.99 1016.12 1016.28 1016.48 1016.70 1016.94 1017.18 1017.42 1017.66 1017.90 1018.14 1018.39 1018.65 1018.91 1019.19 1019.46 1019.72 1019.96 1020.17
1016.78 1017.08 1017.36 1017.62 1017.84 1017.99 1018.05 1018.03 1017.91 1017.73 1017.48 1017.18 1016.87 1016.56 1016.27 1016.01 1015.79 1015.63 1015.52 1015.47 1015.49 1015.57 1015.71 1015.89 1016.11 1016.37 1016.64 1016.93 1017.23 1017.52 1017.82 1018.12 1018.41 1018.70 1018.98 1019.25 1019.48 1019.68
1016.28 1016.51 1016.74 1016.96 1017.16 1017.32 1017.41 1017.44 1017.39 1017.28 1017.11 1016.89 1016.64 1016.37 1016.09 1015.81 1015.55 1015.32 1015.12 1014.98 1014.91 1014.91 1014.97 1015.11 1015.31 1015.56 1015.85 1016.17 1016.50 1016.83 1017.16 1017.48 1017.79 1018.09 1018.37 1018.62 1018.85 1019.04
1015.81 1015.95 1016.11 1016.27 1016.42 1016.56 1016.65 1016.70 1016.71 1016.66 1016.56 1016.42 1016.24 1016.02 1015.78 1015.51 1015.24 1014.97 1014.73 1014.53 1014.38 1014.31 1014.32 1014.40 1014.57 1014.79 1015.07 1015.39 1015.72 1016.06 1016.40 1016.72 1017.03 1017.32 1017.60 1017.84 1018.06 1018.26
1015.49 1015.52 1015.58 1015.66 1015.74 1015.82 1015.89 1015.94 1015.95 1015.94 1015.90 1015.81 1015.69 1015.53 1015.33 1015.10 1014.84 1014.57 1014.31 1014.08 1013.89 1013.77 1013.72 1013.76 1013.87 1014.06 1014.30 1014.58 1014.89 1015.20 1015.52 1015.82 1016.12 1016.39 1016.66 1016.90 1017.12 1017.32
1015.39 1015.32 1015.27 1015.25 1015.25 1015.25 1015.26 1015.26 1015.25 1015.23 1015.19 1015.13 1015.04 1014.92 1014.76 1014.56 1014.33 1014.08 1013.83 1013.59 1013.38 1013.23 1013.14 1013.12 1013.18 1013.30 1013.48 1013.70 1013.95 1014.22 1014.49 1014.77 1015.04 1015.30 1015.56 1015.81 1016.04 1016.27
1015.56 1015.40 1015.26 1015.14 1015.04 1014.95 1014.87 1014.79 1014.72 1014.64 1014.56 1014.47 1014.37 1014.25 1014.10 1013.92 1013.72 1013.49 1013.26 1013.02 1012.81 1012.63 1012.50 1012.43 1012.42 1012.47 1012.57 1012.71 1012.89 1013.09 1013.31 1013.55 1013.80 1014.06 1014.33 1014.60 1014.87 1015.14
1016.02 1015.78 1015.57 1015.36 1015.17 1014.99 1014.80 1014.62 1014.43 1014.26 1014.09 1013.92 1013.76 1013.60 1013.43 1013.24 1013.04 1012.82 1012.59 1012.36 1012.14 1011.93 1011.76 1011.63 1011.55 1011.51 1011.52 1011.57 1011.67 1011.80 1011.97 1012.18 1012.42 1012.69 1012.99 1013.30 1013.63 1013.95
1016.73 1016.45 1016.18 1015.91 1015.64 1015.36 1015.07 1014.76 1014.45 1014.14 1013.84 1013.56 1013.30 1013.05 1012.82 1012.59 1012.36 1012.13 1011.88 1011.64 1011.39 1011.15 1010.93 1010.73 1010.56 1010.42 1010.33 1010.29 1010.31 1010.38 1010.51 1010.70 1010.94 1011.24 1011.58 1011.96 1012.34 1012.74
1017.64 1017.33 1017.04 1016.73 1016.40 1016.04 1015.64 1015.22 1014.77 1014.32 1013.88 1013.46 1013.07 1012.71 1012.38 1012.07 1011.78 1011.50 1011.22 1010.93 1010.63 1010.34 1010.04 1009.76 1009.49 1009.26 1009.07 1008.93 1008.87 1008.88 1008.97 1009.15 1009.41 1009.75 1010.14 1010.58 1011.03 1011.49
1018.64 1018.34 1018.04 1017.71 1017.34 1016.92 1016.44 1015.92 1015.35 1014.77 1014.19 1013.63 1013.10 1012.62 1012.18 1011.78 1011.41 1011.05 1010.70 1010.34 1009.97 1009.59 1009.21 1008.82 1008.45 1008.11 1007.82 1007.59 1007.44 1007.40 1007.45 1007.62 1007.89 1008.26 1008.69 1009.18 1009.69 1010.20
1019.67 1019.38 1019.08 1018.75 1018.36 1017.90 1017.36 1016.75 1016.10 1015.41 1014.72 1014.04 1013.40 1012.81 1012.26 1011.77 1011.30 1010.85 1010.42 1009.97 1009.51 1009.03 1008.53 1008.04 1007.55 1007.09 1006.69 1006.36 1006.14 1006.02 1006.03 1006.17 1006.43 1006.79 1007.24 1007.76 1008.29 1008.83
1020.65 1020.38 1020.08 1019.75 1019.34 1018.86 1018.28 1017.63 1016.92 1016.17 1015.40 1014.65 1013.93 1013.26 1012.63 1012.05 1011.49 1010.96 1010.42 1009.87 1009.31 1008.71 1008.10 1007.48 1006.87 1006.30 1005.78 1005.35 1005.02 1004.82 1004.76 1004.84 1005.05 1005.38 1005.80 1006.30 1006.82 1007.35
1021.54 1021.27 1020.98 1020.63 1020.22 1019.72 1019.13 1018.46 1017.72 1016.95 1016.16 1015.37 1014.62 1013.90 1013.22 1012.57 1011.95 1011.33 1010.70 1010.05 1009.37 1008.66 1007.93 1007.19 1006.45 1005.76 1005.12 1004.57 1004.14 1003.83 1003.67 1003.66 1003.78 1004.02 1004.37 1004.80 1005.26 1005.75
1022.31 1022.03 1021.72 1021.36 1020.93 1020.42 1019.82 1019.16 1018.43 1017.67 1016.89 1016.12 1015.37 1014.64 1013.94 1013.26 1012.58 1011.89 1011.17 1010.43 1009.64 1008.82 1007.97 1007.11 1006.26 1005.45 1004.69 1004.03 1003.48 1003.05 1002.76 1002.61 1002.60 1002.72 1002.94 1003.26 1003.63 1004.04
1022.97 1022.66 1022.32 1021.93 1021.47 1020.95 1020.35 1019.70 1019.00 1018.28 1017.55 1016.81 1016.09 1015.39 1014.68 1013.98 1013.26 1012.51 1011.72 1010.88 1010.00 1009.07 1008.12 1007.16 1006.21 1005.29 1004.43 1003.65 1002.97 1002.41 1001.98 1001.68 1001.51 1001.46 1001.53 1001.70 1001.95 1002.26
1023.49 1023.14 1022.76 1022.34 1021.86 1021.32 1020.73 1020.10 1019.43 1018.76 1018.08 1017.40 1016.72 1016.04 1015.34 1014.63 1013.87 1013.06 1012.20 1011.28 1010.31 1009.30 1008.26 1007.22 1006.18 1005.18 1004.23 1003.35 1002.56 1001.87 1001.28 1000.81 1000.47 1000.24 1000.14 1000.15 1000.27 1000.48
1023.89 1023.50 1023.08 1022.62 1022.11 1021.56 1020.98 1020.37 1019.75 1019.12 1018.49 1017.85 1017.21 1016.55 1015.85 1015.11 1014.31 1013.44 1012.51 1011.52 1010.48 1009.39 1008.29 1007.19 1006.10 1005.03 1004.01 1003.05 1002.15 1001.34 1000.61 999.98 999.46 999.06 998.78 998.64 998.63 998.76
1024.17 1023.75 1023.29 1022.80 1022.27 1021.72 1021.15 1020.56 1019.98 1019.39 1018.80 1018.20 1017.57 1016.91 1016.19 1015.41 1014.55 1013.62 1012.62 1011.55 1010.45 1009.31 1008.16 1007.02 1005.89 1004.79 1003.72 1002.69 1001.70 1000.78 999.92 999.14 998.45 997.89 997.46 997.19 997.09 997.14
1024.32 1023.88 1023.40 1022.90 1022.37 1021.82 1021.27 1020.72 1020.16 1019.61 1019.05 1018.46 1017.83 1017.14 1016.38 1015.54 1014.62 1013.61 1012.54 1011.41 1010.24 1009.07 1007.89 1006.72 1005.58 1004.45 1003.34 1002.26 1001.20 1000.17 999.19 998.27 997.44 996.73 996.18 995.80 995.62 995.65
1024.33 1023.88 1023.41 1022.91 1022.40 1021.88 1021.36 1020.84 1020.32 1019.80 1019.25 1018.66 1018.01 1017.28 1016.47 1015.56 1014.56 1013.48 1012.34 1011.15 1009.95 1008.74 1007.55 1006.38 1005.22 1004.07 1002.94 1001.80 1000.66 999.53 998.42 997.37 996.40 995.57 994.90 994.44 994.22 994.24
1024.20 1023.76 1023.30 1022.83 1022.35 1021.88 1021.40 1020.93 1020.45 1019.95 1019.41 1018.81 1018.14 1017.36 1016.49 1015.51 1014.44 1013.30 1012.11 1010.88 1009.65 1008.43 1007.24 1006.06 1004.89 1003.73 1002.55 1001.34 1000.11 998.87 997.63 996.44 995.34 994.37 993.61 993.08 992.83 992.87
1023.93 1023.50 1023.07 1022.64 1022.21 1021.79 1021.37 1020.95 1020.51 1020.04 1019.51 1018.91 1018.20 1017.39 1016.47 1015.44 1014.32 1013.13 1011.91 1010.67 1009.43 1008.22 1007.03 1005.85 1004.67 1003.47 1002.24 1000.95 999.60 998.22 996.84 995.49 994.24 993.15 992.28 991.70 991.43 991.51
Thickness
5722 5721 5720 5720 5719 5718 5716 5714 5710 5706 5707 5712 5715 5719 5718 5717 5716 5714 5713 5712 5710 5708 5706 5704 5702 5700 5698 5697 5695 5694 5693 5692 5691 5690 5689 5688 5687 5686
5721 5720 5719 5719 5718 5717 5715 5714 5712 5709 5707 5711 5713 5716 5716 5716 5715 5713 5712 5711 5709 5708 5706 5704 5702 5700 5698 5697 5695 5694 5693 5692 5690 5689 5688 5687 5686 5685
5720 5719 5718 5718 5716 5715 5714 5713 5711 5709 5707 5709 5711 5713 5713 5712 5712 5711 5710 5709 5708 5707 5705 5703 5702 5700 5698 5696 5695 5694 5692 5691 5689 5688 5686 5685 5683 5682
5720 5718 5717 5716 5714 5713 5712 5711 5710 5709 5707 5706 5707 5708 5709 5709 5709 5708 5708 5707 5705 5705 5703 5702 5701 5699 5697 5695 5694 5693 5692 5690 5688 5686 5684 5682 5681 5680
5720 5718 5716 5714 5712 5711 5710 5710 5709 5708 5706 5704 5704 5704 5705 5705 5705 5704 5704 5703 5703 5702 5701 5700 5699 5697 5695 5694 5692 5691 5690 5688 5686 5684 5682 5680 5678 5677
5719 5717 5715 5714 5712 5710 5709 5708 5706 5704 5703 5701 5700 5700 5700 5700 5700 5699 5698 5698 5698 5699 5698 5697 5696 5694 5693 5691 5690 5688 5687 5685 5683 5681 5679 5677 5675 5673
5717 5716 5715 5713 5712 5710 5708 5706 5704 5701 5699 5697 5696 5695 5695 5694 5694 5694 5693 5693 5694 5694 5693 5693 5692 5690 5689 5688 5686 5685 5683 5681 5679 5677 5675 5673 5671 5669
5714 5713 5712 5711 5709 5707 5706 5704 5702 5699 5696 5694 5693 5691 5691 5691 5690 5689 5687 5686 5686 5688 5686 5687 5686 5685 5684 5683 5682 5681 5679 5677 5674 5672 5670 5668 5666 5664
5712 5710 5709 5708 5706 5704 5702 5700 5698 5696 5695 5692 5690 5689 5688 5687 5686 5684 5682 5681 5680 5681 5679 5680 5679 5678 5679 5677 5676 5675 5673 5670 5668 5666 5664 5662 5660 5657
5707 5705 5704 5702 5701 5699 5697 5694 5692 5691 5690 5688 5686 5685 5684 5683 5681 5680 5678 5675 5674 5673 5672 5671 5672 5671 5671 5670 5669 5667 5665 5663 5661 5658 5656 5654 5652 5650
5701 5699 5698 5697 5695 5693 5690 5687 5685 5683 5682 5681 5679 5677 5676 5675 5674 5672 5670 5668 5667 5667 5664 5662 5663 5662 5662 5662 5660 5658 5656 5654 5652 5649 5647 5645 5643 5640
5693 5692 5690 5689 5687 5685 5683 5680 5677 5675 5675 5674 5671 5669 5668 5666 5665 5663 5662 5661 5659 5657 5656 5653 5653 5650 5650 5651 5649 5647 5645 5644 5641 5639 5637 5635 5632 5629
5686 5683 5681 5680 5678 5676 5674 5672 5670 5668 5666 5664 5662 5660 5658 5657 5655 5653 5652 5650 5648 5646 5645 5642 5641 5638 5636 5637 5637 5635 5633 5631 5629 5628 5625 5623 5620 5618
5678 5675 5672 5671 5669 5666 5664 5663 5661 5659 5657 5654 5652 5650 5648 5647 5645 5643 5641 5639 5636 5634 5632 5629 5628 5625 5623 5622 5623 5623 5620 5618 5616 5614 5613 5611 5608 5606
5670 5666 5663 5661 5658 5656 5653 5652 5650 5648 5646 5643 5640 5638 5637 5635 5633 5632 5630 5627 5625 5621 5619 5617 5614 5612 5610 5608 5608 5607 5606 5605 5602 5600 5598 5597 5595 5593
5660 5657 5653 5651 5648 5644 5642 5640 5638 5635 5633 5630 5628 5626 5624 5623 5621 5619 5617 5615 5612 5609 5606 5603 5601 5599 5597 5595 5593 5592 5590 5588 5588 5585 5584 5583 5581 5579
5651 5647 5643 5640 5636 5632 5629 5626 5624 5622 5619 5617 5615 5613 5611 5609 5607 5604 5602 5599 5597 5594 5592 5590 5587 5585 5583 5581 5579 5578 5576 5575 5573 5570 5569 5569 5569 5566
5641 5635 5630 5626 5623 5619 5616 5613 5611 5608 5606 5604 5602 5600 5597 5595 5592 5589 5587 5584 5582 5579 5577 5575 5573 5571 5570 5568 5564 5563 5562 5560 5559 5556 5555 5555 5556 5554
5628 5622 5617 5613 5609 5606 5603 5601 5598 5595 5593 5591 5589 5586 5583 5580 5577 5575 5572 5569 5567 5564 5562 5560 5557 5555 5554 5554 5553 5547 5545 5545 5544 5543 5542 5541 5541 5542
5613 5609 5604 5600 5597 5593 5590 5587 5585 5582 5580 5577 5574 5572 5569 5566 5563 5560 5557 5554 5552 5550 5547 5545 5542 5539 5536 5536 5536 5534 5530 5529 5529 5529 5529 5528 5527 5527
5599 5595 5592 5588 5585 5581 5578 5574 5571 5568 5565 5563 5560 5557 5554 5551 5548 5545 5543 5539 5536 5535 5533 5530 5527 5523 5520 5519 5520 5521 5518 5515 5513 5512 5513 5514 5515 5515
5586 5582 5579 5576 5572 5568 5565 5561 5558 5554 5551 5548 5545 5541 5538 5535 5533 5530 5528 5525 5522 5519 5517 5515 5512 5510 5508 5506 5506 5506 5506 5504 5502 5499 5498 5498 5499 5502
5573 5569 5566 5562 5559 5555 5552 5548 5545 5541 5537 5533 5530 5527 5524 5521 5518 5515 5512 5510 5507 5505 5503 5501 5499 5496 5494 5493 5492 5492 5492 5491 5491 5490 5489 5487 5486 5487